SWA1274 KBWI-KPWM

Flight info

Callsign SWA1274
Flight time 1h 12m
Altitude 35000
Route DUKPN1 BROSS Q419 RBV Q22 LLUND BDR SCOGS3
Aircraft B38M/M-SADE2E3GHIJ4J7M3P2RWZ/LB1D1

Departure

Time 2026-04-27 16:41
Airport Baltimore/Washington International Thurgood Marshall Airport (KBWI)

Arrival

Time 2026-04-27 17:53
Airport Portland International Jetport (KPWM)
Time Latitude Longitude Altitude Speed Heading
2026-04-27 15:54 39.17888 -76.67189 133 ft 0 kts 55°
2026-04-27 16:31 39.17853 -76.67252 158 ft 4 kts 43°
2026-04-27 16:31 39.17814 -76.67248 157 ft 1 kts 324°
2026-04-27 16:32 39.17810 -76.67245 157 ft 0 kts 324°
2026-04-27 16:35 39.17811 -76.67246 157 ft 1 kts 324°
2026-04-27 16:35 39.17844 -76.67252 157 ft 3 kts 324°
2026-04-27 16:36 39.17841 -76.67259 157 ft 1 kts 222°
2026-04-27 16:36 39.17819 -76.67253 157 ft 7 kts 156°
2026-04-27 16:36 39.17760 -76.67199 158 ft 13 kts 144°
2026-04-27 16:36 39.17686 -76.67129 158 ft 13 kts 144°
2026-04-27 16:37 39.17612 -76.67060 158 ft 14 kts 143°
2026-04-27 16:37 39.17546 -76.66960 159 ft 16 kts 110°
2026-04-27 16:37 39.17537 -76.66808 158 ft 18 kts 89°
2026-04-27 16:37 39.17524 -76.66641 157 ft 15 kts 95°
2026-04-27 16:38 39.17562 -76.66514 157 ft 16 kts 70°
2026-04-27 16:38 39.17523 -76.66369 154 ft 20 kts 122°
2026-04-27 16:38 39.17460 -76.66223 152 ft 16 kts 100°
2026-04-27 16:38 39.17449 -76.66066 151 ft 19 kts 95°
2026-04-27 16:39 39.17439 -76.65890 148 ft 21 kts 94°
2026-04-27 16:39 39.17427 -76.65702 144 ft 20 kts 93°
2026-04-27 16:39 39.17407 -76.65550 144 ft 17 kts 135°
2026-04-27 16:39 39.17315 -76.65524 143 ft 13 kts 182°
2026-04-27 16:40 39.17283 -76.65551 143 ft 1 kts 264°
2026-04-27 16:40 39.17283 -76.65560 143 ft 0 kts 268°
2026-04-27 16:40 39.17283 -76.65563 143 ft 2 kts 269°
2026-04-27 16:40 39.17291 -76.65760 145 ft 56 kts 274°
2026-04-27 16:41 39.17338 -76.66574 155 ft 123 kts 274°
2026-04-27 16:41 39.17412 -76.67892 312 ft 159 kts 274°
2026-04-27 16:41 39.17474 -76.69372 853 ft 173 kts 274°
2026-04-27 16:41 39.17574 -76.70925 1569 ft 180 kts 275°
2026-04-27 16:42 39.17672 -76.72618 2095 ft 201 kts 271°
2026-04-27 16:42 39.17345 -76.74494 2524 ft 234 kts 239°
2026-04-27 16:42 39.16069 -76.75858 3210 ft 242 kts 195°
2026-04-27 16:42 39.14424 -76.75906 4165 ft 243 kts 159°
2026-04-27 16:43 39.13069 -76.74681 5091 ft 237 kts 126°
2026-04-27 16:43 39.11986 -76.73035 5996 ft 245 kts 130°
2026-04-27 16:43 39.10798 -76.71424 6714 ft 251 kts 131°
2026-04-27 16:43 39.09569 -76.69807 6928 ft 253 kts 131°
2026-04-27 16:44 39.08552 -76.67956 7562 ft 258 kts 108°
2026-04-27 16:44 39.08275 -76.65647 8173 ft 269 kts 86°
2026-04-27 16:44 39.08346 -76.63206 9019 ft 274 kts 86°
2026-04-27 16:44 39.08396 -76.61546 9618 ft 278 kts 85°
2026-04-27 16:45 39.08480 -76.59028 10378 ft 287 kts 84°
2026-04-27 16:45 39.08576 -76.56376 10829 ft 307 kts 84°
2026-04-27 16:45 39.08682 -76.53542 11198 ft 328 kts 84°
2026-04-27 16:45 39.08834 -76.49509 11731 ft 352 kts 84°
2026-04-27 16:46 39.08916 -76.47362 12099 ft 359 kts 83°
2026-04-27 16:46 39.09436 -76.44244 12822 ft 356 kts 67°
2026-04-27 16:46 39.10241 -76.41195 13539 ft 363 kts 67°
2026-04-27 16:46 39.11060 -76.38105 14276 ft 367 kts 67°
2026-04-27 16:47 39.11894 -76.34987 15005 ft 371 kts 66°
2026-04-27 16:47 39.12743 -76.31830 15706 ft 375 kts 66°
2026-04-27 16:47 39.13601 -76.28638 16389 ft 379 kts 66°
2026-04-27 16:47 39.14470 -76.25408 17045 ft 384 kts 66°
2026-04-27 16:48 39.15244 -76.22086 17655 ft 393 kts 75°
2026-04-27 16:48 39.15641 -76.18583 18327 ft 396 kts 77°
2026-04-27 16:48 39.16046 -76.15044 18902 ft 401 kts 77°
2026-04-27 16:49 39.16864 -76.07873 20078 ft 408 kts 77°
2026-04-27 16:49 39.17281 -76.04240 20647 ft 412 kts 77°
2026-04-27 16:49 39.17705 -76.00523 21186 ft 416 kts 77°
2026-04-27 16:49 39.18122 -75.96869 21720 ft 419 kts 76°
2026-04-27 16:50 39.18558 -75.93096 22243 ft 421 kts 75°
2026-04-27 16:50 39.19433 -75.89584 22706 ft 414 kts 57°
2026-04-27 16:50 39.21080 -75.86536 23148 ft 407 kts 41°
2026-04-27 16:50 39.23117 -75.84007 23582 ft 409 kts 38°
2026-04-27 16:51 39.25232 -75.81540 24035 ft 411 kts 36°
2026-04-27 16:51 39.27393 -75.79100 24525 ft 413 kts 36°
2026-04-27 16:51 39.29573 -75.76673 24952 ft 416 kts 36°
2026-04-27 16:51 39.31788 -75.74230 25392 ft 419 kts 35°
2026-04-27 16:52 39.34012 -75.71788 25799 ft 422 kts 35°
2026-04-27 16:52 39.36256 -75.69326 26202 ft 425 kts 35°
2026-04-27 16:52 39.38519 -75.66842 26598 ft 428 kts 35°
2026-04-27 16:52 39.40798 -75.64339 27011 ft 430 kts 35°
2026-04-27 16:53 39.43083 -75.61828 27396 ft 433 kts 35°
2026-04-27 16:53 39.45383 -75.59297 27758 ft 435 kts 35°
2026-04-27 16:53 39.47691 -75.56755 28125 ft 437 kts 35°
2026-04-27 16:53 39.50011 -75.54199 28471 ft 440 kts 34°
2026-04-27 16:54 39.52348 -75.51620 28815 ft 442 kts 35°
2026-04-27 16:54 39.54698 -75.49024 29149 ft 445 kts 34°
2026-04-27 16:54 39.57059 -75.46415 29480 ft 447 kts 34°
2026-04-27 16:54 39.59433 -75.43789 29795 ft 450 kts 35°
2026-04-27 16:55 39.61813 -75.41153 30120 ft 452 kts 34°
2026-04-27 16:55 39.64210 -75.38496 30452 ft 453 kts 34°
2026-04-27 16:55 39.66599 -75.35846 30895 ft 451 kts 34°
2026-04-27 16:55 39.68982 -75.33199 31344 ft 450 kts 34°
2026-04-27 16:56 39.71343 -75.30575 31798 ft 447 kts 34°
2026-04-27 16:56 39.73704 -75.27948 32253 ft 444 kts 34°
2026-04-27 16:56 39.76043 -75.25343 32692 ft 442 kts 34°
2026-04-27 16:56 39.78370 -75.22745 33154 ft 440 kts 35°
2026-04-27 16:57 39.80490 -75.19843 33588 ft 444 kts 41°
2026-04-27 16:57 39.82525 -75.16835 34001 ft 442 kts 41°
2026-04-27 16:57 39.84550 -75.13842 34398 ft 440 kts 41°
2026-04-27 16:57 39.86590 -75.10815 34758 ft 439 kts 41°
2026-04-27 16:58 39.88607 -75.07817 35029 ft 440 kts 41°
2026-04-27 16:58 39.90626 -75.04813 35260 ft 442 kts 41°
2026-04-27 16:58 39.94673 -74.98780 35317 ft 441 kts 42°
2026-04-27 16:59 39.98436 -74.92403 35348 ft 448 kts 49°
2026-04-27 16:59 40.01913 -74.85640 35297 ft 448 kts 49°
2026-04-27 17:00 40.07094 -74.75470 35316 ft 448 kts 50°
2026-04-27 17:01 40.10550 -74.68664 35314 ft 450 kts 50°
2026-04-27 17:01 40.14003 -74.61850 35303 ft 450 kts 50°
2026-04-27 17:02 40.17448 -74.55036 35305 ft 450 kts 50°
2026-04-27 17:02 40.21220 -74.48621 35257 ft 434 kts 33°
2026-04-27 17:03 40.25874 -74.43560 35248 ft 435 kts 34°
2026-04-27 17:03 40.30540 -74.38517 35321 ft 436 kts 33°
2026-04-27 17:04 40.35223 -74.33497 35374 ft 434 kts 33°
2026-04-27 17:04 40.39907 -74.28472 35325 ft 435 kts 33°
2026-04-27 17:05 40.44573 -74.23457 35326 ft 437 kts 33°
2026-04-27 17:05 40.49296 -74.18374 35303 ft 435 kts 33°
2026-04-27 17:06 40.53975 -74.13328 35342 ft 436 kts 33°
2026-04-27 17:06 40.58669 -74.08255 35323 ft 435 kts 33°
2026-04-27 17:07 40.63347 -74.03191 35322 ft 436 kts 34°
2026-04-27 17:07 40.68027 -73.98115 35312 ft 436 kts 34°
2026-04-27 17:08 40.72734 -73.93000 35316 ft 440 kts 34°
2026-04-27 17:08 40.77458 -73.87857 35320 ft 440 kts 34°
2026-04-27 17:09 40.82187 -73.82699 35306 ft 441 kts 35°
2026-04-27 17:09 40.86640 -73.77107 35286 ft 451 kts 51°
2026-04-27 17:10 40.89978 -73.70028 35293 ft 454 kts 53°
2026-04-27 17:10 40.93268 -73.62893 35300 ft 455 kts 54°
2026-04-27 17:11 40.96536 -73.55719 35292 ft 455 kts 54°
2026-04-27 17:11 41.01230 -73.45379 35290 ft 455 kts 54°
2026-04-27 17:12 41.06112 -73.34584 35298 ft 456 kts 54°
2026-04-27 17:13 41.09386 -73.27325 35302 ft 456 kts 55°
2026-04-27 17:13 41.12641 -73.20091 35302 ft 457 kts 55°
2026-04-27 17:14 41.15902 -73.12863 35302 ft 456 kts 54°
2026-04-27 17:14 41.19273 -73.05739 35309 ft 456 kts 54°
2026-04-27 17:15 41.22635 -72.98584 35307 ft 456 kts 54°
2026-04-27 17:15 41.25990 -72.91428 35294 ft 457 kts 54°
2026-04-27 17:16 41.29346 -72.84251 35296 ft 457 kts 54°
2026-04-27 17:16 41.32697 -72.77068 35296 ft 457 kts 54°
2026-04-27 17:17 41.36051 -72.69863 35291 ft 457 kts 55°
2026-04-27 17:17 41.39391 -72.62666 35289 ft 458 kts 55°
2026-04-27 17:18 41.43857 -72.53021 35288 ft 458 kts 55°
2026-04-27 17:18 41.47198 -72.45785 35278 ft 458 kts 56°
2026-04-27 17:19 41.50534 -72.38542 35286 ft 458 kts 56°
2026-04-27 17:19 41.53858 -72.31308 35288 ft 458 kts 56°
2026-04-27 17:20 41.57183 -72.24055 35282 ft 457 kts 56°
2026-04-27 17:20 41.60498 -72.16808 35280 ft 457 kts 56°
2026-04-27 17:21 41.63808 -72.09550 35280 ft 457 kts 56°
2026-04-27 17:21 41.67114 -72.02288 35287 ft 458 kts 57°
2026-04-27 17:22 41.70419 -71.95010 35289 ft 458 kts 57°
2026-04-27 17:22 41.73721 -71.87720 35289 ft 458 kts 57°
2026-04-27 17:23 41.76521 -71.81523 35289 ft 458 kts 57°
2026-04-27 17:23 41.79819 -71.74214 35294 ft 458 kts 57°
2026-04-27 17:24 41.83111 -71.66899 35295 ft 458 kts 57°
2026-04-27 17:24 41.85991 -71.59267 35303 ft 460 kts 63°
2026-04-27 17:25 41.88766 -71.51522 35299 ft 460 kts 62°
2026-04-27 17:25 41.91578 -71.43746 35306 ft 461 kts 62°
2026-04-27 17:26 41.94378 -71.35991 35301 ft 461 kts 62°
2026-04-27 17:26 41.97173 -71.28229 35299 ft 462 kts 62°
2026-04-27 17:27 41.99969 -71.20443 35079 ft 462 kts 62°
2026-04-27 17:27 42.01362 -71.16557 34821 ft 460 kts 62°
2026-04-27 17:27 42.02742 -71.12701 34121 ft 458 kts 62°
2026-04-27 17:28 42.04101 -71.08899 33264 ft 462 kts 62°
2026-04-27 17:28 42.05488 -71.05013 32653 ft 459 kts 62°
2026-04-27 17:28 42.08313 -70.97435 31562 ft 447 kts 53°
2026-04-27 17:29 42.10341 -70.94328 30899 ft 440 kts 37°
2026-04-27 17:29 42.12894 -70.92141 30360 ft 432 kts 23°
2026-04-27 17:29 42.15558 -70.90665 29922 ft 425 kts 20°
2026-04-27 17:29 42.18304 -70.89254 29361 ft 422 kts 19°
2026-04-27 17:30 42.21054 -70.87908 28812 ft 418 kts 19°
2026-04-27 17:30 42.26493 -70.85321 27746 ft 412 kts 18°
2026-04-27 17:30 42.29184 -70.84057 27209 ft 409 kts 18°
2026-04-27 17:31 42.31861 -70.82803 26697 ft 405 kts 18°
2026-04-27 17:31 42.34521 -70.81557 26181 ft 402 kts 19°
2026-04-27 17:31 42.37190 -70.80306 25659 ft 399 kts 19°
2026-04-27 17:31 42.39770 -70.79096 25155 ft 396 kts 19°
2026-04-27 17:32 42.42362 -70.77879 24654 ft 393 kts 19°
2026-04-27 17:32 42.47459 -70.75115 23577 ft 389 kts 22°
2026-04-27 17:32 42.49959 -70.73746 23112 ft 386 kts 22°
2026-04-27 17:33 42.52438 -70.72391 22641 ft 383 kts 22°
2026-04-27 17:33 42.54896 -70.71049 22169 ft 380 kts 22°
2026-04-27 17:33 42.57342 -70.69713 21720 ft 377 kts 22°
2026-04-27 17:33 42.59760 -70.68391 21275 ft 374 kts 22°
2026-04-27 17:34 42.62164 -70.67076 20806 ft 372 kts 22°
2026-04-27 17:34 42.64574 -70.65757 20119 ft 375 kts 22°
2026-04-27 17:34 42.66995 -70.64428 19640 ft 373 kts 23°
2026-04-27 17:34 42.69348 -70.62961 19124 ft 372 kts 25°
2026-04-27 17:35 42.71676 -70.61487 18720 ft 364 kts 25°
2026-04-27 17:35 42.73945 -70.60059 18326 ft 355 kts 25°
2026-04-27 17:35 42.76159 -70.58670 17916 ft 347 kts 25°
2026-04-27 17:35 42.78343 -70.57300 17529 ft 344 kts 25°
2026-04-27 17:36 42.80503 -70.55944 17142 ft 341 kts 25°
2026-04-27 17:36 42.82650 -70.54596 16755 ft 338 kts 25°
2026-04-27 17:36 42.84775 -70.53262 16370 ft 335 kts 25°
2026-04-27 17:36 42.86887 -70.51934 15990 ft 333 kts 25°
2026-04-27 17:37 42.88978 -70.50619 15623 ft 329 kts 25°
2026-04-27 17:37 42.91049 -70.49314 15245 ft 327 kts 25°
2026-04-27 17:37 42.93102 -70.48019 14876 ft 324 kts 25°
2026-04-27 17:37 42.95136 -70.46737 14503 ft 321 kts 25°
2026-04-27 17:38 42.97153 -70.45465 14153 ft 318 kts 25°
2026-04-27 17:38 42.99157 -70.44199 13793 ft 316 kts 26°
2026-04-27 17:38 43.01143 -70.42945 13439 ft 313 kts 26°
2026-04-27 17:38 43.03031 -70.41512 13058 ft 310 kts 34°
2026-04-27 17:39 43.04829 -70.39913 12710 ft 307 kts 33°
2026-04-27 17:39 43.06623 -70.38346 12376 ft 304 kts 33°
2026-04-27 17:39 43.08397 -70.36810 12060 ft 301 kts 33°
2026-04-27 17:39 43.10201 -70.35257 11704 ft 305 kts 33°
2026-04-27 17:40 43.12009 -70.33707 11346 ft 309 kts 33°
2026-04-27 17:40 43.13806 -70.32167 11175 ft 296 kts 33°
2026-04-27 17:40 43.15492 -70.30725 11096 ft 275 kts 33°
2026-04-27 17:40 43.17063 -70.29353 10966 ft 265 kts 34°
2026-04-27 17:41 43.18610 -70.27993 10809 ft 263 kts 34°
2026-04-27 17:41 43.20139 -70.26648 10878 ft 263 kts 33°
2026-04-27 17:41 43.21688 -70.25287 10609 ft 265 kts 34°
2026-04-27 17:41 43.23310 -70.24117 10339 ft 265 kts 17°
2026-04-27 17:42 43.25151 -70.24002 10102 ft 269 kts 351°
2026-04-27 17:42 43.26864 -70.25031 9929 ft 274 kts 327°
2026-04-27 17:42 43.28315 -70.26746 9784 ft 277 kts 322°
2026-04-27 17:42 43.29754 -70.28505 9605 ft 277 kts 321°
2026-04-27 17:43 43.31179 -70.30269 9441 ft 276 kts 321°
2026-04-27 17:43 43.32603 -70.32041 9277 ft 276 kts 321°
2026-04-27 17:43 43.34013 -70.33801 9109 ft 275 kts 321°
2026-04-27 17:43 43.35366 -70.35533 8920 ft 276 kts 318°
2026-04-27 17:44 43.36706 -70.37427 8631 ft 277 kts 317°
2026-04-27 17:44 43.38048 -70.39319 8381 ft 276 kts 317°
2026-04-27 17:44 43.39388 -70.41203 8117 ft 275 kts 317°
2026-04-27 17:44 43.40725 -70.43079 7872 ft 274 kts 317°
2026-04-27 17:45 43.42055 -70.44945 7597 ft 272 kts 317°
2026-04-27 17:45 43.43370 -70.46788 7341 ft 268 kts 317°
2026-04-27 17:45 43.44670 -70.48612 7079 ft 265 kts 317°
2026-04-27 17:45 43.45958 -70.50420 6828 ft 265 kts 317°
2026-04-27 17:46 43.47257 -70.52244 6582 ft 267 kts 317°
2026-04-27 17:46 43.48557 -70.54069 6329 ft 267 kts 317°
2026-04-27 17:46 43.49847 -70.55884 6074 ft 265 kts 317°
2026-04-27 17:46 43.51134 -70.57696 5819 ft 264 kts 317°
2026-04-27 17:47 43.52410 -70.59493 5570 ft 261 kts 316°
2026-04-27 17:47 43.53270 -70.60705 5445 ft 261 kts 317°
2026-04-27 17:47 43.54946 -70.62988 5070 ft 248 kts 326°
2026-04-27 17:47 43.56491 -70.63824 4796 ft 230 kts 359°
2026-04-27 17:48 43.58019 -70.63616 4602 ft 215 kts 12°
2026-04-27 17:48 43.59502 -70.63252 4470 ft 217 kts 12°
2026-04-27 17:48 43.60984 -70.62871 4315 ft 217 kts 13°
2026-04-27 17:48 43.62440 -70.62335 4065 ft 217 kts 30°
2026-04-27 17:49 43.63510 -70.60936 3813 ft 212 kts 59°
2026-04-27 17:49 43.64159 -70.59116 3734 ft 210 kts 65°
2026-04-27 17:49 43.64791 -70.57274 3540 ft 213 kts 65°
2026-04-27 17:49 43.65415 -70.55406 3288 ft 214 kts 66°
2026-04-27 17:50 43.65878 -70.53502 3059 ft 208 kts 81°
2026-04-27 17:50 43.65811 -70.50177 2568 ft 205 kts 97°
2026-04-27 17:50 43.65652 -70.48267 2324 ft 196 kts 96°
2026-04-27 17:51 43.65520 -70.46468 2040 ft 180 kts 96°
2026-04-27 17:51 43.65406 -70.44815 1814 ft 167 kts 96°
2026-04-27 17:51 43.65301 -70.43254 1607 ft 161 kts 97°
2026-04-27 17:51 43.65202 -70.41746 1416 ft 153 kts 98°
2026-04-27 17:52 43.65103 -70.40315 1216 ft 148 kts 98°
2026-04-27 17:52 43.65008 -70.38903 1006 ft 148 kts 98°
2026-04-27 17:52 43.64923 -70.37488 833 ft 148 kts 98°
2026-04-27 17:52 43.64821 -70.36083 601 ft 147 kts 98°
2026-04-27 17:53 43.64723 -70.34666 401 ft 146 kts 98°
2026-04-27 17:53 43.64628 -70.33267 223 ft 147 kts 98°
2026-04-27 17:53 43.64552 -70.31879 83 ft 136 kts 101°
2026-04-27 17:53 43.64480 -70.31179 71 ft 31 kts 94°
2026-04-27 17:54 43.64465 -70.30854 68 ft 29 kts 93°
2026-04-27 17:54 43.64490 -70.30704 60 ft 5 kts 24°
2026-04-27 17:54 43.64541 -70.30700 58 ft 8 kts 332°
2026-04-27 17:54 43.64568 -70.30769 67 ft 9 kts 282°
2026-04-27 17:55 43.64574 -70.30866 68 ft 11 kts 274°
2026-04-27 17:55 43.64584 -70.30984 69 ft 15 kts 278°
2026-04-27 17:55 43.64597 -70.31140 71 ft 17 kts 275°
2026-04-27 17:55 43.64627 -70.31282 72 ft 14 kts 315°
2026-04-27 17:56 43.64692 -70.31354 73 ft 9 kts 318°
2026-04-27 17:56 43.64722 -70.31390 74 ft 2 kts 320°
2026-04-27 17:56 43.64730 -70.31399 74 ft 1 kts 320°
2026-04-27 17:56 43.64739 -70.31409 74 ft 2 kts 325°
2026-04-27 17:57 43.64747 -70.31408 74 ft 2 kts 11°
2026-04-27 17:57 43.64764 -70.31394 74 ft 4 kts 37°
2026-04-27 17:57 43.64779 -70.31371 74 ft 4 kts 49°
2026-04-27 17:57 43.64787 -70.31358 74 ft 0 kts 50°
2026-04-27 18:05 43.64790 -70.31353 74 ft 0 kts 50°